Buena Vista, CO

9:55 AM MST on November 22, 2017 (GMT -0700)
Buena Vista

Weather History for KAEJ - June, 2014

Change the Weather History Date:

Tuesday, June 10, 2014

  Actual Average (KLXV) Record (KLXV)
Temperature  
Mean Temperature 54 °F -  
Max Temperature 76 °F 60 °F 77 °F (2013)
Min Temperature 32 °F 33 °F 24 °F (1984)
Degree Days  
Heating Degree Days 11    
Growing Degree Days 4 (Base 50)    
Moisture  
Dew Point 25 °F    
Average Humidity 37    
Maximum Humidity 78    
Minimum Humidity 11    
Precipitation  
Precipitation 0.00 in - - ()
Sea Level Pressure  
Sea Level Pressure 30.19 in    
Wind  
Wind Speed 6 mph (West)    
Max Wind Speed 26 mph    
Max Gust Speed 38 mph    
Visibility 10 miles    
Events      
Averages and records for this station are not official NWS values.
T = Trace of Precipitation, MM = Missing Value Source: NWS Daily Summary

Daily Weather History Graph

Daily Weather History Graph

Search for Another Location

Airport or City:

Trip Planner

Search our weather history database for the weather conditions in past years. The results will help you decide how hot, cold, wet, or windy it might be!

Date:

Astronomy

Jun. 10, 2014 Rise Set
Actual Time 5:39 AM MDT 8:29 PM MDT
Civil Twilight 5:07 AM MDT 9:00 PM MDT
Nautical Twilight 4:27 AM MDT 9:41 PM MDT
Astronomical Twilight 3:41 AM MDT 10:26 PM MDT
Moon 5:58 PM MDT (6/10) 3:44 AM MDT (6/10)
Length of Visible Light 15h 53m
Length of Day
14h 50m
Waxing Gibbous, 92% of the Moon is Illuminated
Jun 10
Waxing Gibbous
Jun 12
Full
Jun 19
Last Quarter
Jun 27
New
Jul 5
First Quarter

Hourly Weather History & Observations

Time (MDT) Temp. Windchill Dew Point Humidity Pressure Visibility Wind Dir Wind Speed Gust Speed Precip Events Conditions
12:15 AM 45.5 °F - 26.2 °F 47% 30.23 in 10.0 mi Calm Calm - N/A   Clear
12:35 AM 41.0 °F 39.0 °F 25.3 °F 54% 30.24 in 10.0 mi West 3.5 mph - N/A   Clear
12:55 AM 39.4 °F 35.2 °F 25.5 °F 58% 30.24 in 10.0 mi WSW 5.8 mph - N/A   Clear
1:15 AM 38.8 °F - 25.3 °F 58% 30.23 in 10.0 mi Calm Calm - N/A   Clear
1:35 AM 40.6 °F 36.7 °F 25.3 °F 54% 30.23 in 10.0 mi NW 5.8 mph - N/A   Clear
2:15 AM 39.4 °F 34.5 °F 26.4 °F 60% 30.23 in 10.0 mi West 6.9 mph - N/A   Clear
2:35 AM 38.7 °F 35.2 °F 26.8 °F 62% 30.23 in 10.0 mi West 4.6 mph - N/A   Clear
2:55 AM 36.9 °F 33.1 °F 26.4 °F 66% 30.23 in 10.0 mi WNW 4.6 mph - N/A   Clear
3:15 AM 38.7 °F 35.2 °F 27.1 °F 63% 30.23 in 10.0 mi WNW 4.6 mph - N/A   Clear
3:35 AM 37.2 °F 34.7 °F 26.6 °F 65% 30.22 in 10.0 mi West 3.5 mph - N/A   Clear
3:55 AM 37.4 °F 33.8 °F 26.6 °F 65% 30.23 in 10.0 mi West 4.6 mph - N/A   Clear
4:15 AM 35.6 °F 32.8 °F 26.1 °F 68% 30.23 in 10.0 mi NNW 3.5 mph - N/A   Clear
4:35 AM 37.0 °F - 26.6 °F 66% 30.23 in 10.0 mi Calm Calm - N/A   Clear
4:55 AM 36.7 °F - 26.8 °F 67% 30.23 in 10.0 mi Calm Calm - N/A   Clear
5:15 AM 35.4 °F 32.6 °F 27.3 °F 72% 30.24 in 10.0 mi SSW 3.5 mph - N/A   Clear
5:35 AM 36.7 °F - 27.3 °F 69% 30.24 in 10.0 mi Calm Calm - N/A   Clear
5:55 AM 32.7 °F 29.6 °F 25.7 °F 75% 30.24 in 10.0 mi WNW 3.5 mph - N/A   Clear
6:15 AM 33.1 °F 30.0 °F 26.8 °F 78% 30.24 in 10.0 mi West 3.5 mph - N/A   Clear
6:35 AM 39.0 °F 35.7 °F 28.4 °F 66% 30.25 in 10.0 mi NW 4.6 mph - N/A   Clear
6:55 AM 41.2 °F 39.2 °F 28.4 °F 60% 30.25 in 10.0 mi NNW 3.5 mph - N/A   Clear
7:15 AM 43.7 °F - 28.9 °F 56% 30.25 in 10.0 mi Calm Calm - N/A   Clear
7:55 AM 48.9 °F - 28.2 °F 45% 30.25 in 10.0 mi Calm Calm - N/A   Clear
8:15 AM 51.6 °F - 27.7 °F 40% 30.24 in 10.0 mi Calm Calm - N/A   Clear
8:35 AM 53.4 °F - 27.5 °F 37% 30.23 in 10.0 mi Calm Calm - N/A   Clear
8:55 AM 54.7 °F - 26.1 °F 33% 30.23 in 10.0 mi Calm Calm - N/A   Clear
9:15 AM 56.5 °F - 26.2 °F 31% 30.23 in 10.0 mi Calm Calm - N/A   Clear
9:35 AM 59.0 °F - 26.2 °F 29% 30.22 in 10.0 mi East 3.5 mph - N/A   Clear
9:55 AM 61.0 °F - 24.1 °F 24% 30.21 in 10.0 mi SSE 3.5 mph - N/A   Clear
10:15 AM 63.7 °F - 21.7 °F 20% 30.21 in 10.0 mi Calm Calm - N/A   Clear
10:35 AM 65.7 °F - 20.8 °F 18% 30.20 in 10.0 mi ESE 3.5 mph - N/A   Clear
11:15 AM 68.9 °F - 18.9 °F 15% 30.18 in 10.0 mi ESE 3.5 mph - N/A   Clear
11:35 AM 68.9 °F - 18.3 °F 15% 30.17 in 10.0 mi Calm Calm - N/A   Clear
11:55 AM 71.8 °F - 19.2 °F 14% 30.16 in 10.0 mi East 6.9 mph - N/A   Clear
12:15 PM 73.0 °F - 18.3 °F 13% 30.15 in 10.0 mi South 5.8 mph - N/A   Scattered Clouds
12:35 PM 73.6 °F - 18.1 °F 12% 30.15 in 10.0 mi WSW 9.2 mph - N/A   Scattered Clouds
1:15 PM 74.7 °F - 18.5 °F 12% 30.14 in 10.0 mi WSW 13.8 mph 21.9 mph N/A   Mostly Cloudy
1:35 PM 72.7 °F - 17.4 °F 12% 30.14 in 10.0 mi WSW 25.3 mph 36.8 mph N/A   Mostly Cloudy
1:55 PM 75.6 °F - 19.0 °F 12% 30.16 in 10.0 mi West 23.0 mph 31.1 mph N/A   Scattered Clouds
2:15 PM 74.3 °F - 21.6 °F 14% 30.15 in 10.0 mi WNW 9.2 mph 27.6 mph N/A   Scattered Clouds
2:35 PM 75.7 °F - 21.6 °F 13% 30.14 in 10.0 mi WSW 13.8 mph 27.6 mph N/A   Scattered Clouds
3:15 PM 72.0 °F - 21.4 °F 15% 30.16 in 10.0 mi SW 17.3 mph 27.6 mph N/A   Mostly Cloudy
3:35 PM 73.8 °F - 21.6 °F 14% 30.14 in 10.0 mi SW 17.3 mph 25.3 mph N/A   Scattered Clouds
3:55 PM 75.2 °F - 19.9 °F 13% 30.14 in 10.0 mi West 20.7 mph 35.7 mph N/A   Clear
4:15 PM 76.5 °F - 18.7 °F 11% 30.13 in 10.0 mi WSW 15.0 mph 29.9 mph N/A   Clear
4:35 PM 76.5 °F - 18.1 °F 11% 30.12 in 10.0 mi West 24.2 mph 32.2 mph N/A   Clear
4:55 PM 74.8 °F - 17.6 °F 12% 30.13 in 10.0 mi West 19.6 mph 38.0 mph N/A   Scattered Clouds
5:15 PM 71.6 °F - 18.3 °F 13% 30.13 in 10.0 mi West 9.2 mph 24.2 mph N/A   Clear
5:35 PM 74.3 °F - 18.9 °F 12% 30.13 in 10.0 mi WNW 19.6 mph 29.9 mph N/A   Clear
5:55 PM 71.8 °F - 22.8 °F 16% 30.13 in 10.0 mi NW 21.9 mph 32.2 mph N/A   Scattered Clouds
6:15 PM 69.6 °F - 24.6 °F 18% 30.13 in 10.0 mi NW 20.7 mph 25.3 mph N/A   Clear
6:35 PM 68.9 °F - 25.2 °F 19% 30.12 in 10.0 mi NW 5.8 mph 20.7 mph N/A   Clear
6:55 PM 69.1 °F - 23.0 °F 18% 30.13 in 10.0 mi WNW 13.8 mph 19.6 mph N/A   Clear
7:15 PM 68.4 °F - 23.4 °F 18% 30.15 in 10.0 mi West 12.7 mph - N/A   Clear
7:35 PM 65.7 °F - 28.6 °F 25% 30.15 in 10.0 mi NW 26.5 mph 33.4 mph N/A   Scattered Clouds
7:55 PM 62.2 °F - 31.6 °F 32% 30.15 in 10.0 mi NNW 17.3 mph 35.7 mph N/A   Clear
8:15 PM 61.2 °F - 30.7 °F 32% 30.17 in 10.0 mi NW 10.4 mph 20.7 mph N/A   Clear
8:35 PM 60.1 °F - 30.2 °F 32% 30.16 in 10.0 mi North 9.2 mph - N/A   Clear
9:15 PM 57.4 °F - 32.0 °F 38% 30.15 in 10.0 mi NW 12.7 mph - N/A   Clear
9:35 PM 55.9 °F - 32.7 °F 41% 30.16 in 10.0 mi West 8.1 mph - N/A   Clear
9:55 PM 54.5 °F - 32.9 °F 44% 30.16 in 10.0 mi WNW 10.4 mph - N/A   Clear
10:15 PM 54.0 °F - 33.6 °F 46% 30.17 in 10.0 mi Calm Calm - N/A   Clear
10:35 PM 54.0 °F - 32.2 °F 44% 30.17 in 10.0 mi NW 5.8 mph - N/A   Clear
10:55 PM 53.1 °F - 32.4 °F 45% 30.17 in 10.0 mi Calm Calm - N/A   Clear
11:15 PM 52.3 °F - 32.0 °F 46% 30.16 in 10.0 mi Calm Calm - N/A   Clear
11:35 PM 49.6 °F - 32.2 °F 51% 30.17 in 10.0 mi West 6.9 mph - N/A   Clear
11:55 PM 48.6 °F - 31.6 °F 52% 30.17 in 10.0 mi West 8.1 mph - N/A   Clear